Find Yaogan 31 hao 03 zu 01 xing

NORAD ID: 47691 Int'l Des: 2021-014 Owner: ZLZB Country: CN Constellation: yaogan operational
LEO

現在のビュー

3D地球を読み込み中...

Yaogan 31 hao 03 zu 01 xingについて

説明を読み込み中...

次回通過

Passes for default location (London). Set your location on the main map for personalized predictions.

高度履歴

Loading altitude history...

軌道要素

1 47691U 21014A 26150.84835175 -.00000027 00000-0 97016-4 0 9997
2 47691 63.4044 242.4083 0175545 0.5838 359.5361 13.45448163258448
Epoch: May 30, 2026 • Age: 7 hours

現在のステータス

高度 1041.2 km
速度 7.36 km/s
衛星直下点 -50.83°S, 92.75°W
打ち上げ日 Feb 24, 2021
運用期間 5.2 years
タイプ military

技術仕様

分類 Payload
質量 500.00 kg
乾燥質量 500.00 kg
総質量 500.00 kg
長さ 0.50 m
直径 0.50 m
スパン 1.00 m
形状 Box + 2 Pan
製造者 DFHZ
バスタイプ JB-8B
フェーズステータス In Orbit
所有者/国 ZLZB/CN

Most Searched